KLM651 EDDC-EDDM

Flight info

Callsign KLM651
Flight time N/A
Altitude 28000
Route MAREM8E/04 MAREM DCT VESUB T106 TUSTO T108 LANDU LANDU2A
Aircraft B738/M-SDE2E3FGHIRWXY/LB1

Departure

Time 2026-04-28 10:30
Airport Dresden Airport (EDDC)

Arrival

Time N/A
Airport Munich Airport (EDDM)
Time Latitude Longitude Altitude Speed Heading
2026-04-28 10:09 51.12594 13.76604 756 ft 0 kts 221°
2026-04-28 10:20 51.12598 13.76609 755 ft 2 kts 221°
2026-04-28 10:20 51.12608 13.76623 755 ft 2 kts 221°
2026-04-28 10:21 51.12618 13.76637 755 ft 2 kts 221°
2026-04-28 10:21 51.12629 13.76652 755 ft 2 kts 221°
2026-04-28 10:21 51.12639 13.76666 755 ft 2 kts 221°
2026-04-28 10:21 51.12648 13.76685 754 ft 2 kts 256°
2026-04-28 10:22 51.12649 13.76707 754 ft 2 kts 282°
2026-04-28 10:22 51.12644 13.76726 754 ft 0 kts 307°
2026-04-28 10:22 51.12640 13.76732 754 ft 1 kts 313°
2026-04-28 10:22 51.12639 13.76735 754 ft 0 kts 311°
2026-04-28 10:25 51.12640 13.76733 754 ft 1 kts 311°
2026-04-28 10:25 51.12669 13.76681 754 ft 10 kts 311°
2026-04-28 10:25 51.12717 13.76592 752 ft 12 kts 311°
2026-04-28 10:25 51.12766 13.76502 750 ft 8 kts 311°
2026-04-28 10:26 51.12790 13.76453 749 ft 8 kts 295°
2026-04-28 10:26 51.12765 13.76357 750 ft 16 kts 222°
2026-04-28 10:26 51.12687 13.76253 752 ft 15 kts 220°
2026-04-28 10:26 51.12616 13.76151 753 ft 13 kts 221°
2026-04-28 10:27 51.12558 13.76072 755 ft 11 kts 221°
2026-04-28 10:27 51.12496 13.75987 754 ft 15 kts 221°
2026-04-28 10:27 51.12429 13.75894 756 ft 13 kts 221°
2026-04-28 10:27 51.12384 13.75830 754 ft 6 kts 227°
2026-04-28 10:28 51.12375 13.75768 753 ft 8 kts 274°
2026-04-28 10:28 51.12383 13.75705 752 ft 0 kts 289°
2026-04-28 10:28 51.12386 13.75693 752 ft 3 kts 297°
2026-04-28 10:29 51.12477 13.75503 747 ft 10 kts 355°
2026-04-28 10:29 51.12524 13.75548 749 ft 8 kts 40°
2026-04-28 10:29 51.12635 13.75701 752 ft 57 kts 42°
2026-04-28 10:29 51.13070 13.76297 739 ft 127 kts 40°
2026-04-28 10:30 51.13780 13.77280 961 ft 164 kts 42°
2026-04-28 10:30 51.14527 13.78295 1839 ft 161 kts 43°
2026-04-28 10:30 51.15284 13.79289 2589 ft 163 kts 41°
2026-04-28 10:30 51.16082 13.80359 3060 ft 177 kts 42°
2026-04-28 10:31 51.16920 13.81561 3463 ft 195 kts 44°
2026-04-28 10:31 51.17847 13.82927 3960 ft 211 kts 43°
2026-04-28 10:31 51.18839 13.84347 4509 ft 225 kts 42°
2026-04-28 10:31 51.19888 13.85866 5010 ft 240 kts 47°
2026-04-28 10:32 51.20667 13.87975 5509 ft 258 kts 74°
2026-04-28 10:32 51.20713 13.90465 6221 ft 267 kts 100°
2026-04-28 10:32 51.20101 13.92925 6911 ft 277 kts 119°
2026-04-28 10:32 51.18994 13.95029 7592 ft 286 kts 136°
2026-04-28 10:33 51.17634 13.96701 8413 ft 288 kts 142°
2026-04-28 10:33 51.16272 13.98465 9106 ft 293 kts 136°
2026-04-28 10:33 51.14992 14.00418 9833 ft 297 kts 133°
2026-04-28 10:33 51.13707 14.02537 10524 ft 302 kts 132°
2026-04-28 10:34 51.12413 14.04688 10959 ft 316 kts 134°
2026-04-28 10:34 51.10945 14.06710 11363 ft 332 kts 145°
2026-04-28 10:34 51.09102 14.08147 11748 ft 347 kts 162°
2026-04-28 10:34 51.06979 14.08799 12108 ft 362 kts 177°
2026-04-28 10:35 51.04749 14.08660 12717 ft 367 kts 188°
2026-04-28 10:35 51.02530 14.07959 13368 ft 371 kts 198°
2026-04-28 10:35 51.00497 14.06546 14068 ft 370 kts 214°
2026-04-28 10:35 50.98717 14.04333 14756 ft 370 kts 224°
2026-04-28 10:36 50.97069 14.01883 15428 ft 373 kts 226°
2026-04-28 10:36 50.95419 13.99309 16107 ft 376 kts 227°
2026-04-28 10:36 50.93791 13.96742 16765 ft 379 kts 227°
2026-04-28 10:36 50.92139 13.94144 17415 ft 382 kts 227°
2026-04-28 10:37 50.90451 13.91517 18079 ft 385 kts 227°
2026-04-28 10:37 50.88776 13.88937 18706 ft 388 kts 227°
2026-04-28 10:37 50.87041 13.86286 19318 ft 392 kts 227°
2026-04-28 10:37 50.85295 13.83633 19905 ft 395 kts 227°
2026-04-28 10:38 50.83579 13.81035 20591 ft 394 kts 227°
2026-04-28 10:38 50.81807 13.78360 21119 ft 399 kts 227°
2026-04-28 10:38 50.80065 13.75732 21703 ft 401 kts 227°
2026-04-28 10:38 50.78273 13.73033 22239 ft 403 kts 227°
2026-04-28 10:39 50.76491 13.70352 22764 ft 406 kts 227°
2026-04-28 10:39 50.74690 13.67678 23270 ft 409 kts 226°
2026-04-28 10:39 50.72751 13.65072 23789 ft 414 kts 221°
2026-04-28 10:39 50.70696 13.62905 24264 ft 420 kts 213°
2026-04-28 10:40 50.68412 13.61184 24773 ft 426 kts 206°
2026-04-28 10:40 50.65966 13.59739 25256 ft 430 kts 203°
2026-04-28 10:40 50.63531 13.58485 25722 ft 433 kts 201°
2026-04-28 10:40 50.61006 13.57269 26167 ft 436 kts 201°
2026-04-28 10:41 50.58479 13.56089 26795 ft 434 kts 201°
2026-04-28 10:41 50.55962 13.54917 27382 ft 433 kts 201°
2026-04-28 10:41 50.53462 13.53739 27822 ft 434 kts 201°
2026-04-28 10:41 50.50943 13.52539 28173 ft 436 kts 201°
2026-04-28 10:42 50.48383 13.51306 28202 ft 434 kts 202°
2026-04-28 10:42 50.43418 13.48894 28203 ft 426 kts 202°
2026-04-28 10:43 50.38467 13.46470 28196 ft 427 kts 202°
2026-04-28 10:43 50.33524 13.44032 28193 ft 427 kts 202°
2026-04-28 10:44 50.28603 13.41609 28191 ft 426 kts 202°
2026-04-28 10:44 50.23747 13.39218 28189 ft 426 kts 202°
2026-04-28 10:45 50.18819 13.36802 28181 ft 426 kts 202°
2026-04-28 10:45 50.13907 13.34402 28183 ft 426 kts 201°
2026-04-28 10:46 50.08950 13.31979 28179 ft 426 kts 201°
2026-04-28 10:46 50.03994 13.29559 28169 ft 426 kts 201°
2026-04-28 10:47 49.99056 13.27165 28169 ft 427 kts 201°
2026-04-28 10:47 49.94060 13.24762 28161 ft 426 kts 201°
2026-04-28 10:48 49.89139 13.22390 28152 ft 426 kts 201°
2026-04-28 10:48 49.84245 13.20032 28158 ft 425 kts 201°
2026-04-28 10:49 49.79310 13.17654 28162 ft 425 kts 201°
2026-04-28 10:49 49.74380 13.15280 28165 ft 424 kts 201°
2026-04-28 10:50 49.69447 13.12910 28159 ft 424 kts 201°
2026-04-28 10:50 49.64516 13.10549 28151 ft 424 kts 202°
2026-04-28 10:51 49.59627 13.08215 28150 ft 422 kts 202°
2026-04-28 10:51 49.54703 13.05863 28159 ft 424 kts 201°
2026-04-28 10:52 49.49816 13.03529 28141 ft 422 kts 202°
2026-04-28 10:52 49.44983 13.01227 28140 ft 422 kts 202°
2026-04-28 10:53 49.40194 12.98644 28140 ft 419 kts 207°
2026-04-28 10:53 49.35635 12.95453 28135 ft 415 kts 211°
2026-04-28 10:54 49.31131 12.92090 28126 ft 414 kts 211°
2026-04-28 10:54 49.26657 12.88756 28119 ft 413 kts 211°
2026-04-28 10:55 49.22162 12.85446 28121 ft 413 kts 211°
2026-04-28 10:55 49.17682 12.82168 28118 ft 412 kts 211°
2026-04-28 10:56 49.13226 12.78927 28124 ft 412 kts 211°
2026-04-28 10:56 49.08730 12.75671 28112 ft 411 kts 211°
2026-04-28 10:57 49.04267 12.72454 28113 ft 411 kts 211°
2026-04-28 10:57 48.99785 12.69232 28104 ft 411 kts 211°
2026-04-28 10:58 48.95311 12.66022 28093 ft 410 kts 211°
2026-04-28 10:58 48.90848 12.62825 28096 ft 410 kts 211°
2026-04-28 10:59 48.86402 12.59653 28089 ft 411 kts 211°
2026-04-28 10:59 48.81860 12.56423 28085 ft 410 kts 211°
2026-04-28 11:00 48.77380 12.53247 28088 ft 410 kts 211°
2026-04-28 11:00 48.72782 12.50373 28097 ft 414 kts 206°
2026-04-28 11:01 48.68172 12.47527 28086 ft 405 kts 215°
2026-04-28 11:01 48.66193 12.45431 28097 ft 398 kts 227°
2026-04-28 11:01 48.64515 12.42768 28099 ft 393 kts 236°
2026-04-28 11:02 48.62027 12.36693 28090 ft 385 kts 248°
2026-04-28 11:02 48.60420 12.30209 28092 ft 375 kts 260°
2026-04-28 11:03 48.59744 12.23332 28091 ft 376 kts 265°
2026-04-28 11:03 48.59312 12.16468 28085 ft 375 kts 266°
2026-04-28 11:04 48.58998 12.09553 28089 ft 374 kts 268°
2026-04-28 11:04 48.58726 12.02634 28086 ft 375 kts 268°
2026-04-28 11:05 48.58467 11.95776 28083 ft 374 kts 268°
2026-04-28 11:05 48.58200 11.88899 28087 ft 375 kts 268°
2026-04-28 11:06 48.57928 11.81959 28086 ft 375 kts 268°
2026-04-28 11:06 48.57654 11.75099 28088 ft 374 kts 267°
2026-04-28 11:07 48.56879 11.68277 28091 ft 378 kts 253°
2026-04-28 11:07 48.55868 11.65100 28099 ft 381 kts 242°
2026-04-28 11:07 48.54461 11.62292 28106 ft 387 kts 233°
2026-04-28 11:08 48.50935 11.57630 28087 ft 396 kts 218°
2026-04-28 11:08 48.48721 11.55980 28104 ft 403 kts 207°
2026-04-28 11:08 48.46359 11.54749 28102 ft 407 kts 204°
2026-04-28 11:09 48.41619 11.52691 28097 ft 409 kts 202°
2026-04-28 11:09 48.36842 11.50711 28090 ft 407 kts 202°
2026-04-28 11:10 48.32115 11.49063 28066 ft 392 kts 190°
2026-04-28 11:10 48.29769 11.49354 28068 ft 391 kts 173°
2026-04-28 11:10 48.27619 11.50615 28069 ft 390 kts 155°